Weather History for Newberry, MI

Change the Weather History Date:

Tuesday, November 5, 2013

  Actual Average Record
Temperature  
Mean Temperature 46 °F -  
Max Temperature 52 °F 43 °F 64 °F (2008)
Min Temperature 39 °F 29 °F 8 °F (1951)
Degree Days  
Heating Degree Days 20    
Moisture  
Dew Point 38 °F    
Average Humidity 77    
Maximum Humidity 99    
Minimum Humidity 50    
Precipitation  
Precipitation 0.23 in - - ()
Sea Level Pressure  
Sea Level Pressure 30.15 in    
Wind  
Wind Speed 8 mph (SSW)    
Max Wind Speed 14 mph    
Max Gust Speed 20 mph    
Visibility 9 miles    
Events Rain    
Averages and records for this station are not official NWS values.
T = Trace of Precipitation, MM = Missing Value Source: NWS Daily Summary

Daily Weather History Graph

Daily Weather History Graph

Search for Another Location

Airport:

Trip Planner

Search our weather history database for the weather conditions in past years. The results will help you decide how hot, cold, wet, or windy it might be!

Date:

Astronomy

Nov. 05, 2013 Rise Set
Actual Time 7:29 AM EST 5:21 PM EST
Civil Twilight 6:57 AM EST 5:52 PM EST
Nautical Twilight 6:21 AM EST 6:28 PM EST
Astronomical Twilight 5:46 AM EST 7:03 PM EST
Moon 9:48 AM EST (11/5) 7:16 PM EST (11/5)
Length of Visible Light 10h 55m
Length of Day
9h 51m
Waxing Crescent, 6% of the Moon is Illuminated
Nov 5
Waxing Crescent
Nov 10
First Quarter
Nov 17
Full
Nov 25
Last Quarter
Dec 2
New

Hourly Weather History & Observations

Time (EST) Temp. Windchill Dew Point Humidity Pressure Visibility Wind Dir Wind Speed Gust Speed Precip Events Conditions
12:14 AM 44.6 °F 38.1 °F 34.7 °F 68% 30.09 in 10.0 mi SSE 13.8 mph - N/A   Overcast
12:35 AM 44.8 °F 39.0 °F 35.6 °F 70% 30.10 in 10.0 mi South 11.5 mph 16.1 mph N/A   Overcast
12:55 AM 45.0 °F 38.5 °F 37.2 °F 74% 30.10 in 10.0 mi South 13.8 mph 19.6 mph N/A   Overcast
1:15 AM 45.0 °F 40.6 °F 37.6 °F 75% 30.10 in 10.0 mi South 8.1 mph - N/A   Overcast
1:34 AM 44.8 °F 39.0 °F 38.1 °F 77% 30.10 in 10.0 mi South 11.5 mph - N/A   Drizzle
1:55 AM 45.1 °F 40.8 °F 37.9 °F 76% 30.10 in 10.0 mi South 8.1 mph - N/A   Overcast
2:15 AM 45.7 °F 42.7 °F 38.3 °F 75% 30.10 in 10.0 mi South 5.8 mph - N/A   Overcast
2:34 AM 45.7 °F 42.0 °F 39.7 °F 80% 30.10 in 10.0 mi SSW 6.9 mph - N/A   Overcast
2:55 AM 47.1 °F - 42.8 °F 85% 30.11 in 10.0 mi SW 8.1 mph - N/A   Overcast
3:14 AM 47.3 °F - 43.0 °F 85% 30.11 in 10.0 mi SW 8.1 mph - N/A   Overcast
3:35 AM 47.3 °F - 43.2 °F 86% 30.11 in 10.0 mi SSW 6.9 mph - N/A   Overcast
3:55 AM 46.8 °F - 43.2 °F 87% 30.12 in 10.0 mi SW 8.1 mph - N/A   Overcast
4:14 AM 46.6 °F - 43.2 °F 88% 30.12 in 10.0 mi SSW 6.9 mph - N/A   Overcast
4:35 AM 46.6 °F - 43.2 °F 88% 30.13 in 10.0 mi SSW 5.8 mph - N/A   Overcast
4:55 AM 46.6 °F - 43.2 °F 88% 30.14 in 10.0 mi SW 5.8 mph - N/A   Overcast
5:15 AM 46.6 °F - 42.8 °F 87% 30.14 in 10.0 mi WSW 6.9 mph - N/A   Overcast
5:35 AM 45.7 °F 42.7 °F 42.1 °F 87% 30.15 in 10.0 mi SW 5.8 mph - N/A   Mostly Cloudy
5:55 AM 44.2 °F 41.0 °F 41.7 °F 91% 30.16 in 10.0 mi SW 5.8 mph - N/A   Mostly Cloudy
6:15 AM 43.9 °F 40.5 °F 41.5 °F 91% 30.16 in 10.0 mi SSW 5.8 mph - N/A   Overcast
6:35 AM 43.7 °F 40.3 °F 41.4 °F 91% 30.16 in 10.0 mi SSW 5.8 mph - N/A   Overcast
6:54 AM 42.6 °F 39.9 °F 40.6 °F 93% 30.17 in 10.0 mi SSW 4.6 mph - N/A   Overcast
7:15 AM 41.0 °F 37.1 °F 39.6 °F 95% 30.18 in 7.0 mi SSW 5.8 mph - N/A   Mostly Cloudy
7:35 AM 39.9 °F 35.8 °F 39.0 °F 97% 30.19 in 5.0 mi SSW 5.8 mph - N/A   Scattered Clouds
7:54 AM 41.0 °F 37.1 °F 40.1 °F 97% 30.19 in 5.0 mi SW 5.8 mph - N/A   Scattered Clouds
8:15 AM 41.9 °F 38.2 °F 40.3 °F 94% 30.19 in 7.0 mi SW 5.8 mph - N/A   Clear
8:34 AM 43.2 °F 39.0 °F 40.5 °F 90% 30.19 in 10.0 mi SW 6.9 mph - N/A   Clear
8:55 AM 44.2 °F 41.8 °F 40.5 °F 87% 30.19 in 10.0 mi SW 4.6 mph - N/A   Clear
9:15 AM 45.1 °F 42.0 °F 40.1 °F 82% 30.20 in 10.0 mi WSW 5.8 mph - N/A   Clear
9:34 AM 45.9 °F 42.3 °F 39.4 °F 78% 30.20 in 10.0 mi WSW 6.9 mph - N/A   Clear
9:55 AM 46.8 °F - 38.8 °F 74% 30.20 in 10.0 mi SSW 6.9 mph - N/A   Clear
10:14 AM 47.1 °F - 38.1 °F 71% 30.20 in 10.0 mi SW 8.1 mph - N/A   Clear
10:35 AM 47.8 °F - 37.0 °F 66% 30.20 in 10.0 mi SW 9.2 mph - N/A   Clear
10:55 AM 48.6 °F - 35.2 °F 60% 30.21 in 10.0 mi SW 11.5 mph - N/A   Clear
11:14 AM 49.1 °F - 35.4 °F 59% 30.21 in 10.0 mi SW 11.5 mph - N/A   Clear
11:35 AM 49.5 °F - 35.6 °F 59% 30.22 in 10.0 mi WSW 11.5 mph 17.3 mph N/A   Clear
11:55 AM 50.7 °F - 36.1 °F 57% 30.22 in 10.0 mi SSW 11.5 mph - N/A   Clear
12:15 PM 50.5 °F - 35.2 °F 56% 30.21 in 10.0 mi SW 11.5 mph - N/A   Clear
12:35 PM 50.9 °F - 35.4 °F 55% 30.20 in 10.0 mi SW 9.2 mph - N/A   Clear
12:54 PM 51.3 °F - 33.8 °F 51% 30.19 in 10.0 mi SSW 13.8 mph 18.4 mph N/A   Clear
1:15 PM 52.0 °F - 33.8 °F 50% 30.19 in 10.0 mi SSW 13.8 mph 17.3 mph N/A   Clear
1:35 PM 52.3 °F - 34.7 °F 51% 30.18 in 10.0 mi SSW 9.2 mph - N/A   Clear
1:55 PM 51.8 °F - 36.7 °F 56% 30.18 in 10.0 mi SSW 11.5 mph 16.1 mph N/A   Clear
2:15 PM 51.6 °F - 37.4 °F 58% 30.19 in 10.0 mi South 10.4 mph - N/A   Clear
2:34 PM 52.2 °F - 37.4 °F 57% 30.18 in 10.0 mi South 6.9 mph - N/A   Clear
2:55 PM 51.8 °F - 36.3 °F 56% 30.18 in 10.0 mi South 9.2 mph - N/A   Clear
3:14 PM 51.4 °F - 35.2 °F 54% 30.18 in 10.0 mi SSW 10.4 mph - N/A   Clear
3:34 PM 51.3 °F - 34.0 °F 52% 30.19 in 10.0 mi SSW 9.2 mph - N/A   Clear
3:55 PM 50.5 °F - 34.3 °F 54% 30.18 in 10.0 mi South 10.4 mph - N/A   Clear
4:15 PM 48.7 °F - 33.8 °F 56% 30.17 in 10.0 mi SSW 8.1 mph - N/A   Clear
4:35 PM 47.3 °F - 34.0 °F 60% 30.17 in 10.0 mi SSW 6.9 mph - N/A   Clear
4:55 PM 45.7 °F 42.0 °F 34.5 °F 65% 30.17 in 10.0 mi South 6.9 mph - N/A   Clear
5:15 PM 43.7 °F 41.1 °F 33.8 °F 68% 30.17 in 10.0 mi South 4.6 mph - N/A   Clear
5:35 PM 43.7 °F 40.3 °F 33.8 °F 68% 30.17 in 10.0 mi South 5.8 mph - N/A   Clear
5:55 PM 43.9 °F 41.3 °F 34.5 °F 70% 30.17 in 10.0 mi SSW 4.6 mph - N/A   Scattered Clouds
6:15 PM 43.0 °F 41.3 °F 34.7 °F 73% 30.16 in 10.0 mi SSW 3.5 mph - N/A   Scattered Clouds
6:34 PM 42.1 °F - 35.2 °F 77% 30.14 in 10.0 mi Calm Calm - N/A   Mostly Cloudy
6:55 PM 41.9 °F - 34.7 °F 76% 30.13 in 10.0 mi Calm Calm - N/A   Scattered Clouds
7:15 PM 41.9 °F - 36.1 °F 80% 30.14 in 10.0 mi Calm Calm - N/A   Mostly Cloudy
7:34 PM 41.9 °F - 37.0 °F 83% 30.13 in 10.0 mi Calm Calm - N/A   Overcast
7:55 PM 41.4 °F - 37.4 °F 86% 30.13 in 10.0 mi Calm Calm - N/A   Overcast
8:15 PM 41.9 °F - 38.3 °F 87% 30.12 in 10.0 mi Calm Calm - N/A   Overcast
8:35 PM 41.9 °F - 37.6 °F 85% 30.10 in 10.0 mi Calm Calm - N/A Rain Light Rain
8:55 PM 41.0 °F - 37.8 °F 88% 30.09 in 10.0 mi Calm Calm - N/A Rain Light Rain
9:14 PM 41.2 °F - 38.7 °F 91% 30.09 in 10.0 mi Calm Calm - N/A Rain Light Rain
9:35 PM 41.0 °F - 39.7 °F 95% 30.09 in 4.0 mi Calm Calm - 0.02 in   Overcast
9:55 PM 41.0 °F - 40.3 °F 97% 30.08 in 3.0 mi Calm Calm - 0.05 in   Overcast
10:14 PM 41.0 °F - 40.6 °F 99% 30.08 in 2.5 mi Calm Calm - 0.03 in   Overcast
10:35 PM 41.4 °F 38.4 °F 41.0 °F 99% 30.05 in 2.5 mi East 4.6 mph - 0.08 in   Overcast
10:55 PM 41.4 °F 39.4 °F 41.2 °F 99% 30.04 in 2.5 mi ENE 3.5 mph - 0.11 in   Overcast
11:14 PM 41.4 °F - 40.8 °F 98% 30.04 in 2.5 mi Calm Calm - 0.03 in   Overcast
11:35 PM 41.2 °F 38.2 °F 40.6 °F 98% 30.02 in 4.0 mi NNE 4.6 mph - 0.05 in   Overcast
11:55 PM 41.0 °F 38.0 °F 40.3 °F 97% 30.01 in 5.0 mi North 4.6 mph - 0.07 in Rain Light Rain